[[{"header":{"parameterUnit":"m.s-1","parameterCategory":2,"la1":30.2992,"la2":30.254,"lo1":-89.0895,"lo2":-89.0443,"dy":0.0025,"dx":0.0025,"nx":19,"ny":19,"refTime":"2026-03-16T03:00:00:Z","depth":"0","parameterNumber":2,"parameterNumberName":"U-component_of_CURRENTS"},"data":[0,0,0,-0.1534,-0.1534,-0.1553,-0.1553,-0.1531,-0.1531,0,0,0,0,0,0,0,0,0,0,0,-0.152,-0.152,-0.1534,-0.1534,-0.1553,-0.1553,-0.1531,-0.1531,0,0,0,0,0,0,0,0,0,0,0,-0.152,-0.152,-0.152,-0.1535,-0.1553,-0.1553,-0.1531,-0.1527,0,0,0,0,0,0,0,0,0,0,-0.1514,-0.1502,-0.152,-0.152,-0.1535,-0.1553,-0.1553,-0.1527,-0.1527,-0.1512,0,-0.1516,0,-0.1529,-0.1529,-0.1529,0,0,0,-0.1527,-0.1502,-0.1518,-0.152,-0.1535,-0.1553,-0.1542,-0.1527,-0.1527,-0.1512,-0.1516,-0.1516,-0.1528,-0.1529,-0.1529,-0.1545,-0.1545,0,0,-0.1526,-0.1512,-0.1518,-0.1518,-0.154,-0.1542,-0.1543,-0.1528,-0.1521,-0.1516,-0.1516,-0.1528,-0.1529,-0.1529,-0.1544,-0.1545,0,0,0,-0.1528,-0.1511,-0.1527,-0.1518,-0.1528,-0.1543,-0.1544,-0.1521,-0.153,-0.1516,-0.1528,-0.1529,-0.1528,-0.1544,-0.1545,-0.1586,0,0,0,-0.1527,-0.1513,-0.1527,-0.1517,-0.1529,-0.153,-0.1537,-0.153,-0.153,-0.1528,-0.1529,-0.1528,-0.1544,-0.1544,-0.1584,-0.1595,0,0,0,-0.1519,-0.1512,-0.1517,-0.1517,-0.153,-0.1531,-0.1538,-0.1531,-0.1537,-0.1529,-0.1528,-0.1543,-0.1544,-0.1582,-0.1593,-0.1583,0,0,0,-0.15,-0.1514,-0.1516,-0.1539,-0.153,-0.1568,-0.1538,-0.1554,-0.1552,-0.1529,-0.1544,-0.1545,-0.1582,-0.1591,-0.1582,-0.1418,-0.141,0,0,-0.1512,-0.1514,-0.1532,-0.1536,-0.1581,-0.1565,-0.1602,-0.1583,-0.1559,-0.1543,-0.1544,-0.1585,-0.1592,-0.1583,-0.147,-0.146,0,0,0,-0.1534,-0.1543,-0.1558,-0.1583,-0.1608,-0.1626,-0.1618,-0.1609,-0.1599,-0.1563,-0.1591,-0.1595,-0.1587,-0.1486,-0.1479,-0.1372,-0.1549,-0.1549,-0.1549,-0.1509,-0.1547,-0.1579,-0.1622,-0.1647,-0.1668,-0.1674,-0.1659,-0.1635,-0.1639,-0.1634,-0.1662,-0.1556,-0.1549,-0.1443,-0.1643,-0.1643,-0.1643,-0.1644,-0.1523,-0.1537,-0.1591,-0.1633,-0.1669,-0.1695,-0.1717,-0.1707,-0.1697,-0.1679,-0.1669,-0.1542,-0.1543,-0.1432,-0.1646,-0.1646,-0.1646,-0.1645,-0.1645,-0.1491,-0.1503,-0.1541,-0.1603,-0.1657,-0.1702,-0.1733,-0.1745,-0.1723,-0.1728,-0.1584,-0.1581,-0.1475,-0.1714,-0.1714,-0.1714,-0.1714,-0.1714,-0.1714,-0.1425,-0.1472,-0.149,-0.1572,-0.1606,-0.1668,-0.1733,-0.1729,-0.1659,-0.1608,-0.1606,-0.1459,-0.1683,-0.1671,-0.1715,-0.1715,-0.1715,-0.1715,-0.1714,-0.1361,-0.1381,-0.1402,-0.1435,-0.1526,-0.1505,-0.1631,-0.1554,-0.1568,-0.148,-0.1312,-0.1529,-0.1491,-0.1493,-0.1476,-0.1467,-0.1467,-0.1467,-0.1467,-0.1288,-0.1313,-0.1292,-0.1318,-0.138,-0.1417,-0.1267,-0.1214,-0.1153,-0.1082,-0.1155,-0.1094,-0.1109,-0.1047,-0.106,-0.1033,-0.0912,-0.0912,-0.0911,-0.1221,-0.1231,-0.1173,-0.1215,-0.1286,-0.1253,-0.0971,-0.0681,-0.0715,-0.0886,-0.1045,-0.1069,-0.0982,-0.1013,-0.0919,-0.0946,-0.0904,0,0]},{"header":{"parameterUnit":"m.s-1","parameterCategory":2,"la1":30.2992,"la2":30.254,"lo1":-89.0895,"lo2":-89.0443,"dy":0.0025,"dx":0.0025,"nx":19,"ny":19,"refTime":"2026-03-16T03:00:00:Z","depth":"0","parameterNumber":3,"parameterNumberName":"V-component_of_CURRENTS"},"data":[0,0,0,-0.007,-0.007,-0.002,-0.002,0.0088,0.0089,0,0,0,0,0,0,0,0,0,0,0,-0.0089,-0.0089,-0.0071,-0.007,-0.002,-0.002,0.0088,0.0089,0,0,0,0,0,0,0,0,0,0,0,-0.0089,-0.0089,-0.0088,-0.007,-0.002,-0.002,0.0088,0.0042,0,0,0,0,0,0,0,0,0,0,-0.0011,-0.0042,-0.0089,-0.0088,-0.0069,-0.002,-0.002,0.004,0.0045,0.0074,0,0.0073,0,0.008,0.0096,0.0097,0,0,0,-0.0058,-0.0047,-0.0031,-0.0088,-0.0069,-0.002,-0.0039,0.0042,0.0048,0.0082,0.0074,0.0078,0.0082,0.0097,0.0097,0.0185,0.0185,0,0,-0.0061,-0.0077,-0.0036,-0.0028,-0.0067,-0.0041,-0.0038,0.0046,0.0047,0.0074,0.008,0.0083,0.0098,0.0098,0.0185,0.0185,0,0,0,-0.0076,-0.0079,-0.0066,-0.0032,-0.0028,-0.004,-0.0036,0.0043,0.0048,0.0081,0.0085,0.0098,0.01,0.0185,0.0185,0.0127,0,0,0,-0.0078,-0.0089,-0.0067,-0.0076,-0.0031,0.0001,-0.004,0.0042,0.0052,0.0084,0.0098,0.0101,0.0185,0.0185,0.0128,0.0099,0,0,0,-0.0089,-0.009,-0.0087,-0.0077,-0.0061,-0.0001,0.0009,0.0044,0.0054,0.0097,0.0101,0.0184,0.0185,0.0129,0.0101,0.0166,0,0,0,-0.0102,-0.0126,-0.0088,-0.011,-0.0061,-0.0041,0.0009,0.0031,0.0061,0.0099,0.0185,0.0185,0.013,0.0103,0.0166,0.0312,0.0323,0,0,-0.0145,-0.0132,-0.0144,-0.0109,-0.0117,-0.0047,-0.0029,0.0031,0.0083,0.0162,0.0164,0.0128,0.0101,0.0166,0.0334,0.0345,0,0,0,-0.0166,-0.0177,-0.0172,-0.0164,-0.0128,-0.0081,-0.0017,0.0029,0.0098,0.0101,0.0152,0.0138,0.0181,0.0269,0.0278,0.0481,0.0187,0.0187,0.0187,-0.0239,-0.022,-0.0241,-0.021,-0.0183,-0.0099,-0.005,0.0033,0.0077,0.0105,0.0109,0.014,0.0233,0.0241,0.0447,0.0133,0.0132,0.0132,0.0132,-0.0313,-0.0328,-0.029,-0.0305,-0.0235,-0.02,-0.0073,-0.0022,0.0081,0.0092,0.0138,0.0225,0.0247,0.0464,0.0129,0.0129,0.013,0.013,0.013,-0.0366,-0.0373,-0.0375,-0.0381,-0.0346,-0.0261,-0.0178,-0.0088,0.003,0.0061,0.0234,0.0237,0.0418,0.0107,0.0107,0.0107,0.0108,0.0108,0.0108,-0.0422,-0.0423,-0.0463,-0.0457,-0.0459,-0.0401,-0.0238,-0.0123,0.009,0.0196,0.0199,0.0473,0.0134,0.0123,0.011,0.011,0.0109,0.0109,0.0109,-0.0482,-0.0486,-0.0552,-0.0572,-0.0562,-0.045,-0.031,0.0038,0.0178,0.0329,0.0647,0.0307,0.0356,0.0352,0.0349,0.0395,0.0395,0.0395,0.0395,-0.0518,-0.0527,-0.0611,-0.0656,-0.0638,-0.0478,-0.0132,0.0232,0.0659,0.0884,0.0876,0.0925,0.0905,0.0988,0.097,0.098,0.1185,0.1186,0.1187,-0.0546,-0.0577,-0.0632,-0.0681,-0.067,-0.044,-0.0021,0.053,0.1103,0.1234,0.113,0.1096,0.1177,0.1128,0.1261,0.1218,0.1235,0,0]}],[{"header":{"parameterUnit":"m.s-1","parameterCategory":2,"la1":30.2992,"la2":30.254,"lo1":-89.0895,"lo2":-89.0443,"dy":0.0025,"dx":0.0025,"nx":19,"ny":19,"refTime":"2026-03-16T03:00:00:Z","depth":"2","parameterNumber":2,"parameterNumberName":"U-component_of_CURRENTS"},"data":[0,0,0,-0.1514,-0.1514,-0.1535,-0.1535,-0.1514,-0.1514,0,0,0,0,0,0,0,0,0,0,0,-0.15,-0.15,-0.1514,-0.1514,-0.1535,-0.1535,-0.1514,-0.1514,0,0,0,0,0,0,0,0,0,0,0,-0.15,-0.15,-0.15,-0.1515,-0.1535,-0.1535,-0.1514,-0.1509,0,0,0,0,0,0,0,0,0,0,-0.1494,-0.1483,-0.15,-0.15,-0.1515,-0.1535,-0.1535,-0.1509,-0.1509,-0.1494,0,-0.1498,0,-0.1511,-0.1512,-0.1512,0,0,0,-0.1507,-0.1483,-0.1498,-0.15,-0.1515,-0.1535,-0.1523,-0.1509,-0.1509,-0.1494,-0.1498,-0.1498,-0.151,-0.1512,-0.1512,-0.1527,-0.1527,0,0,-0.1506,-0.1492,-0.1498,-0.1498,-0.1521,-0.1523,-0.1524,-0.151,-0.1503,-0.1498,-0.1498,-0.151,-0.1511,-0.1511,-0.1527,-0.1527,0,0,0,-0.1508,-0.1491,-0.1508,-0.1499,-0.1509,-0.1524,-0.1525,-0.1503,-0.1512,-0.1498,-0.151,-0.1511,-0.1511,-0.1526,-0.1527,-0.1568,0,0,0,-0.1507,-0.1493,-0.1507,-0.1498,-0.151,-0.1512,-0.1519,-0.1513,-0.1512,-0.151,-0.1511,-0.1511,-0.1526,-0.1526,-0.1566,-0.1578,0,0,0,-0.1499,-0.1492,-0.1497,-0.1497,-0.1511,-0.1513,-0.1519,-0.1513,-0.1519,-0.1512,-0.1511,-0.1525,-0.1526,-0.1564,-0.1575,-0.1566,0,0,0,-0.148,-0.1494,-0.1497,-0.1519,-0.1511,-0.155,-0.152,-0.1536,-0.1535,-0.1511,-0.1526,-0.1527,-0.1564,-0.1573,-0.1565,-0.1403,-0.1395,0,0,-0.1492,-0.1495,-0.1513,-0.1517,-0.1561,-0.1546,-0.1583,-0.1565,-0.1541,-0.1525,-0.1525,-0.1567,-0.1575,-0.1566,-0.1454,-0.1444,0,0,0,-0.1514,-0.1524,-0.1539,-0.1563,-0.1589,-0.1607,-0.1599,-0.159,-0.1581,-0.1546,-0.1573,-0.1577,-0.1569,-0.1469,-0.1463,-0.1531,-0.1531,-0.1531,-0.1531,-0.1492,-0.1528,-0.156,-0.1602,-0.1627,-0.1648,-0.1655,-0.1639,-0.1617,-0.1621,-0.1616,-0.1644,-0.1539,-0.1532,-0.1624,-0.1625,-0.1625,-0.1625,-0.1625,-0.1505,-0.1519,-0.1573,-0.1614,-0.1649,-0.1675,-0.1697,-0.1687,-0.1678,-0.166,-0.1651,-0.1525,-0.1527,-0.1628,-0.1628,-0.1627,-0.1627,-0.1627,-0.1626,-0.1474,-0.1487,-0.1525,-0.1585,-0.1638,-0.1683,-0.1713,-0.1725,-0.1704,-0.1709,-0.1568,-0.1564,-0.165,-0.1696,-0.1696,-0.1696,-0.1696,-0.1696,-0.1696,-0.1411,-0.1457,-0.1474,-0.1555,-0.1588,-0.1649,-0.1714,-0.171,-0.1643,-0.1592,-0.159,-0.1667,-0.1665,-0.1653,-0.1697,-0.1697,-0.1697,-0.1697,-0.1697,-0.1347,-0.1367,-0.1388,-0.142,-0.1509,-0.1489,-0.1613,-0.1539,-0.1553,-0.1468,-0.151,-0.1514,-0.1476,-0.1478,-0.1461,-0.1453,-0.1453,-0.1453,-0.1453,-0.1275,-0.13,-0.1281,-0.1305,-0.1365,-0.1402,-0.1257,-0.1215,-0.1247,-0.124,-0.125,-0.1201,-0.1215,-0.116,-0.1171,-0.1147,-0.1057,-0.1057,-0.1056,-0.1209,-0.122,-0.1163,-0.1204,-0.1273,-0.1241,-0.0969,-0.0738,-0.0814,-0.1046,-0.1239,-0.1416,-0.1368,-0.138,-0.1315,-0.1324,-0.1293,0,0]},{"header":{"parameterUnit":"m.s-1","parameterCategory":2,"la1":30.2992,"la2":30.254,"lo1":-89.0895,"lo2":-89.0443,"dy":0.0025,"dx":0.0025,"nx":19,"ny":19,"refTime":"2026-03-16T03:00:00:Z","depth":"2","parameterNumber":3,"parameterNumberName":"V-component_of_CURRENTS"},"data":[0,0,0,-0.0138,-0.0137,-0.0084,-0.0084,0.0024,0.0025,0,0,0,0,0,0,0,0,0,0,0,-0.0157,-0.0157,-0.0138,-0.0137,-0.0084,-0.0084,0.0024,0.0025,0,0,0,0,0,0,0,0,0,0,0,-0.0157,-0.0157,-0.0157,-0.0137,-0.0084,-0.0084,0.0024,-0.0024,0,0,0,0,0,0,0,0,0,0,-0.0079,-0.0111,-0.0157,-0.0157,-0.0137,-0.0085,-0.0084,-0.0026,-0.0021,0.0008,0,0.0007,0,0.0015,0.0032,0.0032,0,0,0,-0.0125,-0.0115,-0.0099,-0.0157,-0.0137,-0.0085,-0.0105,-0.0023,-0.0017,0.0015,0.0008,0.0012,0.0017,0.0033,0.0033,0.0119,0.0119,0,0,-0.0128,-0.0145,-0.0104,-0.0095,-0.0133,-0.0107,-0.0103,-0.002,-0.0018,0.0009,0.0015,0.0018,0.0033,0.0034,0.0119,0.0119,0,0,0,-0.0145,-0.0147,-0.0133,-0.01,-0.0095,-0.0105,-0.0102,-0.0022,-0.0017,0.0016,0.002,0.0034,0.0035,0.0119,0.0119,0.0061,0,0,0,-0.0146,-0.0157,-0.0135,-0.0143,-0.0098,-0.0064,-0.0106,-0.0023,-0.0013,0.0019,0.0034,0.0036,0.0119,0.0119,0.0062,0.0032,0,0,0,-0.0158,-0.0158,-0.0155,-0.0145,-0.0127,-0.0066,-0.0056,-0.002,-0.0011,0.0032,0.0037,0.0118,0.0119,0.0063,0.0035,0.0096,0,0,0,-0.0171,-0.0194,-0.0156,-0.0176,-0.0127,-0.0107,-0.0056,-0.0033,-0.0002,0.0035,0.0119,0.0119,0.0064,0.0036,0.0096,0.0218,0.0227,0,0,-0.0212,-0.0199,-0.0211,-0.0176,-0.0183,-0.0112,-0.0094,-0.0034,0.0018,0.0096,0.0098,0.0062,0.0035,0.0096,0.0238,0.0246,0,0,0,-0.0232,-0.0243,-0.0237,-0.0229,-0.0192,-0.0147,-0.0082,-0.0036,0.0033,0.0037,0.0086,0.0071,0.0111,0.0186,0.0192,0.0121,0.0121,0.012,0.012,-0.0303,-0.0284,-0.0305,-0.0275,-0.0248,-0.0165,-0.0117,-0.0035,0.001,0.0037,0.0041,0.0069,0.0146,0.0153,0.0065,0.0065,0.0065,0.0064,0.0064,-0.0376,-0.0392,-0.0354,-0.0369,-0.0301,-0.0266,-0.0142,-0.0091,0.001,0.0023,0.0067,0.0141,0.0157,0.006,0.0061,0.0062,0.0062,0.0062,0.0063,-0.0429,-0.0436,-0.0438,-0.0445,-0.0412,-0.0327,-0.0248,-0.0159,-0.0041,-0.0012,0.0144,0.0146,0.005,0.0033,0.0033,0.0033,0.0034,0.0034,0.0034,-0.0485,-0.0487,-0.0526,-0.0522,-0.0524,-0.0468,-0.0309,-0.0198,0.0003,0.0102,0.0105,0.006,0.0061,0.0051,0.0036,0.0035,0.0035,0.0035,0.0035,-0.0547,-0.055,-0.0617,-0.0637,-0.063,-0.0538,-0.0394,-0.0063,0.0077,0.0217,0.0205,0.02,0.0246,0.0243,0.024,0.0274,0.0274,0.0274,0.0274,-0.0584,-0.0593,-0.0678,-0.0724,-0.0711,-0.0574,-0.0297,-0.0047,0.0192,0.023,0.023,0.0228,0.0222,0.0265,0.0262,0.0258,0.0296,0.0296,0.0295,-0.0614,-0.0645,-0.0701,-0.0751,-0.0745,-0.0556,-0.0266,0.0004,0.0199,0.0282,0.0091,0.0304,0.0305,0.0293,0.0365,0.0356,0.0353,0,0]}],[{"header":{"parameterUnit":"m.s-1","parameterCategory":2,"la1":30.2992,"la2":30.254,"lo1":-89.0895,"lo2":-89.0443,"dy":0.0025,"dx":0.0025,"nx":19,"ny":19,"refTime":"2026-03-16T03:00:00:Z","depth":"4","parameterNumber":2,"parameterNumberName":"U-component_of_CURRENTS"},"data":[0,0,0,-0.1085,-0.1088,-0.1186,-0.1186,-0.1226,-0.1226,0,0,0,0,0,0,0,0,0,0,0,-0.1053,-0.1054,-0.1085,-0.1088,-0.1186,-0.1186,-0.1226,-0.1226,0,0,0,0,0,0,0,0,0,0,0,-0.1053,-0.1054,-0.1055,-0.1088,-0.1186,-0.1186,-0.1226,-0.1173,0,0,0,0,0,0,0,0,0,0,-0.1088,-0.1072,-0.1053,-0.1055,-0.1089,-0.1185,-0.1186,-0.1171,-0.1176,-0.1157,0,-0.1181,0,-0.1203,-0.1227,-0.1227,0,0,0,-0.1086,-0.1068,-0.1094,-0.1055,-0.109,-0.1185,-0.1141,-0.1174,-0.118,-0.1163,-0.1182,-0.1184,-0.1203,-0.1227,-0.1227,-0.1269,-0.1269,0,0,-0.108,-0.1068,-0.109,-0.1098,-0.1124,-0.1138,-0.1144,-0.1179,-0.1186,-0.1182,-0.1185,-0.1204,-0.1227,-0.1227,-0.1268,-0.1269,0,0,0,-0.1066,-0.1065,-0.1091,-0.1095,-0.1119,-0.1141,-0.1148,-0.1185,-0.1194,-0.1186,-0.1204,-0.1227,-0.1227,-0.1268,-0.1269,-0.1309,0,0,0,-0.1063,-0.1057,-0.1089,-0.1082,-0.1119,-0.1165,-0.1153,-0.1192,-0.1197,-0.1204,-0.1227,-0.1227,-0.1268,-0.1268,-0.1307,-0.1315,0,0,0,-0.1047,-0.1055,-0.1069,-0.1081,-0.1125,-0.1166,-0.1178,-0.1194,-0.1207,-0.1227,-0.1227,-0.1267,-0.1268,-0.1305,-0.1312,-0.1307,0,0,0,-0.1026,-0.1055,-0.1069,-0.111,-0.1124,-0.1188,-0.1178,-0.1227,-0.1248,-0.1227,-0.1268,-0.1269,-0.1305,-0.1311,-0.1306,-0.112,0,0,0,-0.1047,-0.1057,-0.1082,-0.1097,-0.1159,-0.1174,-0.1235,-0.1258,-0.1251,-0.1249,-0.1251,-0.1308,-0.1312,-0.1307,-0.1173,0,0,0,0,-0.1079,-0.1096,-0.1118,-0.1161,-0.1204,-0.1248,-0.1277,-0.1284,-0.1306,-0.1269,-0.1314,-0.1315,-0.131,-0.1199,-0.1273,-0.1273,-0.1273,-0.1272,-0.1272,-0.1072,-0.1108,-0.1151,-0.1201,-0.1245,-0.1301,-0.1331,-0.1343,-0.1336,-0.1353,-0.1353,-0.1383,-0.1269,-0.1363,-0.1364,-0.1364,-0.1364,-0.1364,-0.1364,-0.1086,-0.1101,-0.1166,-0.1222,-0.1277,-0.1329,-0.1379,-0.1388,-0.1405,-0.1395,-0.1389,-0.1256,-0.1368,-0.1368,-0.1367,-0.1367,-0.1366,-0.1366,-0.1366,-0.1055,-0.1065,-0.1121,-0.1199,-0.1275,-0.1344,-0.1381,-0.1426,-0.1431,-0.1441,-0.1298,-0.14,-0.1389,-0.1434,-0.1434,-0.1434,-0.1434,-0.1434,-0.1434,-0.0982,-0.1039,-0.1074,-0.1173,-0.1221,-0.1295,-0.1384,-0.1387,-0.1416,-0.1315,-0.1446,-0.1406,-0.1404,-0.1392,-0.1435,-0.1435,-0.1435,-0.1435,-0.1435,-0.0909,-0.0949,-0.0985,-0.1034,-0.1132,-0.1173,-0.1307,-0.1274,-0.1255,-0.119,-0.1235,-0.1245,-0.1205,-0.1207,-0.1187,-0.117,-0.1168,-0.1166,0,-0.0841,-0.0869,-0.0888,-0.0921,-0.0955,-0.1077,-0.1031,-0.1065,-0.1078,-0.1032,-0.1227,-0.1279,-0.1284,-0.124,-0.1238,-0.1214,0,0,0,-0.0778,-0.0797,-0.0771,-0.0821,-0.0851,-0.0889,-0.1001,-0.095,-0.1106,-0.1032,-0.1109,-0.1124,-0.1327,-0.1437,-0.1397,-0.1394,-0.1373,0,0]},{"header":{"parameterUnit":"m.s-1","parameterCategory":2,"la1":30.2992,"la2":30.254,"lo1":-89.0895,"lo2":-89.0443,"dy":0.0025,"dx":0.0025,"nx":19,"ny":19,"refTime":"2026-03-16T03:00:00:Z","depth":"4","parameterNumber":3,"parameterNumberName":"V-component_of_CURRENTS"},"data":[0,0,0,-0.0281,-0.028,-0.0221,-0.022,-0.0108,-0.0107,0,0,0,0,0,0,0,0,0,0,0,-0.0302,-0.0302,-0.0281,-0.028,-0.0221,-0.022,-0.0108,-0.0107,0,0,0,0,0,0,0,0,0,0,0,-0.0302,-0.0302,-0.0302,-0.028,-0.0221,-0.022,-0.0109,-0.0159,0,0,0,0,0,0,0,0,0,0,-0.022,-0.0254,-0.0302,-0.0302,-0.0279,-0.0221,-0.022,-0.0162,-0.0156,-0.0129,0,-0.0129,0,-0.0119,-0.01,-0.01,0,0,0,-0.0267,-0.0259,-0.0241,-0.0302,-0.0279,-0.0221,-0.0244,-0.0159,-0.0152,-0.0121,-0.0127,-0.0123,-0.0117,-0.0099,-0.0099,-0.0019,-0.0019,0,0,-0.0271,-0.0288,-0.0246,-0.0237,-0.0275,-0.0246,-0.0242,-0.0155,-0.0153,-0.0127,-0.0121,-0.0116,-0.0099,-0.0098,-0.0019,-0.0019,0,0,0,-0.0288,-0.0291,-0.0275,-0.0241,-0.0236,-0.0244,-0.024,-0.0157,-0.0152,-0.0119,-0.0114,-0.0098,-0.0097,-0.0019,-0.0019,-0.0073,0,0,0,-0.029,-0.0302,-0.0277,-0.0287,-0.0238,-0.0202,-0.0244,-0.0158,-0.0148,-0.0115,-0.0098,-0.0096,-0.0019,-0.0019,-0.0072,-0.0107,0,0,0,-0.0303,-0.0303,-0.03,-0.0288,-0.0267,-0.0203,-0.0192,-0.0155,-0.0145,-0.01,-0.0095,-0.0019,-0.0019,-0.0071,-0.0104,-0.0078,0,0,0,-0.0317,-0.0324,-0.03,-0.0303,-0.0268,-0.0237,-0.0193,-0.016,-0.0127,-0.0098,-0.0019,-0.0019,-0.0071,-0.0103,-0.0077,-0.0131,0,0,0,-0.0335,-0.0327,-0.0327,-0.0305,-0.03,-0.0244,-0.0222,-0.016,-0.0112,-0.0043,-0.0041,-0.0073,-0.0104,-0.0077,-0.0119,0,0,0,0,-0.0338,-0.0346,-0.0337,-0.0329,-0.0293,-0.0264,-0.0202,-0.0163,-0.0102,-0.0093,-0.0053,-0.0072,-0.0053,-0.0081,-0.0018,-0.0018,-0.0018,-0.0018,-0.0018,-0.039,-0.0372,-0.0383,-0.036,-0.0337,-0.0271,-0.0235,-0.0169,-0.0121,-0.0101,-0.0102,-0.0102,-0.0134,-0.0078,-0.0078,-0.0078,-0.0079,-0.0079,-0.0079,-0.0439,-0.0451,-0.0428,-0.0436,-0.0393,-0.0367,-0.0269,-0.0225,-0.0152,-0.0126,-0.0104,-0.012,-0.0084,-0.0083,-0.0082,-0.0081,-0.0081,-0.0081,-0.0081,-0.0487,-0.0492,-0.0497,-0.0511,-0.0495,-0.0431,-0.0393,-0.0306,-0.0208,-0.0191,-0.0173,-0.0122,-0.0132,-0.0163,-0.0163,-0.0163,-0.0163,-0.0163,-0.0163,-0.0537,-0.0541,-0.0585,-0.0587,-0.06,-0.0572,-0.0464,-0.0403,-0.0289,-0.0241,-0.0197,-0.0129,-0.0127,-0.0134,-0.0164,-0.0164,-0.0164,-0.0164,-0.0164,-0.0598,-0.0605,-0.0674,-0.0703,-0.0723,-0.0691,-0.0594,-0.0445,-0.0376,-0.0303,-0.0243,-0.0239,-0.0216,-0.021,-0.022,-0.0277,-0.0278,-0.0278,0,-0.0642,-0.0649,-0.0752,-0.0812,-0.083,-0.0761,-0.0672,-0.0565,-0.0414,-0.0419,-0.0381,-0.0321,-0.0315,-0.0296,-0.0292,-0.0309,0,0,0,-0.0687,-0.0716,-0.0798,-0.0856,-0.0878,-0.0745,-0.0644,-0.0593,-0.0441,-0.0372,-0.0298,-0.0293,-0.0264,-0.0166,-0.012,-0.0116,-0.0126,0,0]}]]